This is the latest recevied weather packets stored in our database for station/object DC8RAI-12. If no packets are shown the sender has not sent any weather packets the latest 10 day(s).
| Time | Temp. | Humidity | Pressure | Rain* | Wind** | Luminosity | Snow |
|---|---|---|---|---|---|---|---|
| 1777441488 | 8.89° C | 56% | 1020.4 hPa | - | - | - | - |
| 1777440588 | 8.89° C | 58% | 1020.3 hPa | - | - | - | - |
| 1777439688 | 8.89° C | 66% | 1020.2 hPa | - | - | - | - |
| 1777438788 | 8.89° C | 66% | 1020 hPa | - | - | - | - |
| 1777437888 | 8.33° C | 68% | 1019.8 hPa | - | - | - | - |
| 1777436988 | 8.33° C | 67% | 1019.7 hPa | - | - | - | - |
| 1777436088 | 8.33° C | 69% | 1019.5 hPa | - | - | - | - |
| 1777435187 | 8.33° C | 68% | 1019.4 hPa | - | - | - | - |
| 1777434287 | 7.78° C | 71% | 1019.3 hPa | - | - | - | - |
| 1777433387 | 8.33° C | 69% | 1019.1 hPa | - | - | - | - |
| 1777432487 | 8.33° C | 69% | 1019 hPa | - | - | - | - |
| 1777431587 | 8.33° C | 70% | 1019 hPa | - | - | - | - |
| 1777430687 | 8.89° C | 68% | 1018.9 hPa | - | - | - | - |
| 1777429787 | 8.89° C | 70% | 1018.9 hPa | - | - | - | - |
| 1777428886 | 8.89° C | 66% | 1018.9 hPa | - | - | - | - |
| 1777427986 | 9.44° C | 67% | 1018.7 hPa | - | - | - | - |
| 1777427086 | 9.44° C | 66% | 1018.7 hPa | - | - | - | - |
| 1777426186 | 8.89° C | 67% | 1018.7 hPa | - | - | - | - |
| 1777425285 | 9.44° C | 66% | 1018.6 hPa | - | - | - | - |
| 1777424385 | 9.44° C | 69% | 1018.6 hPa | - | - | - | - |
| 1777423488 | 10° C | 68% | 1018.5 hPa | - | - | - | - |
| 1777422587 | 10° C | 69% | 1018.5 hPa | - | - | - | - |
| 1777421687 | 10° C | 67% | 1018.6 hPa | - | - | - | - |
| 1777420787 | 10° C | 66% | 1018.5 hPa | - | - | - | - |
| 1777419887 | 10.56° C | 66% | 1018.5 hPa | - | - | - | - |
* Rain since midnight (hover to see other rain measurements)
** Current wind speed in m/s (hover to see current wind gust speed)